SCP
0 0 0 0 0 0 0 0 0 0 0 0 0 0 0 0 0 0 0 0 0 0 0 0 0 0 0 0 0 0 0 0 0 0 0 0 0 0 0 0 0 0 0 0
0 0 0 0 0 0 0 0 0 0 0 0 0 0 0 0 0 0 0 0 0 0 0 0 0 0 0 0 0 0 0 0 0 0 0 0 0 0 0 0 0 0 0 0
0 0 0 0 0 0 0 0 0 0 0 0 0 0 0 0 0 0 0 0 0 0 0 0 0 0 0 0 0 0 0 0 0 0 0 0 0 0 0 0 0 0 0 0
0 0 0 0 0 0 0 0 0 0 0 0 0 0 0 0 0 0 0 0 -0 0 0 0 0 0 0 0 0 0 0 0 0 0 0 0 0 0 0 0 0 0 0 0
0 0 0 0 0 0 0 0 0 0 0 0 0 0 0 0 0 -0 0 -0 0 -0 0 0 0 0 0 0 0 0 0 0 0 0 0 0 0 0 0 0 0 0 0 0
0 0 0 0 0 0 0 0 0 0 0 0 0 0 -0 0 0 0 0 0 0 -0 0 0 0 0 0 0 0 0 0 0 0 0 0 0 0 0 0 0 1 0 0 0
0 0 0 0 0 0 0 0 0 0 0 0 0 0 0 0 0 0 0 0 0 0 -0 0 0 0 0 0 0 0 0 0 0 0 0 0 0 0 0 0 0 0 0 0
0 0 0 0 0 0 0 0 0 0 0 0 0 0 0 0 0 0 0 0 0 0 0 0 0 0 0 0 0 0 0 0 0 0 0 0 0 0 0 0 0 0 0 0
0 0 0 0 0 0 0 0 0 0 0 0 0 0 0 0 0 0 0 0 0 0 0 0 0 0 0 0 0 0 0 0 0 0 0 0 0 0 0 0 0 0 0 0
0 0 0 0 0 0 0 0 0 0 0 0 0 0 0 0 0 0 0 0 0 0 0 0 0 0 0 0 0 0 0 0 0 0 0 0 0 0 0 0 0 0 0 0
0 0 0 0 0 0 0 0 0 0 0 0 0 0 0 0 0 0 0 0 0 0 0 0 0 0 0 0 0 0 0 0 0 0 0 0 0 0 0 0 0 0 0 0
0 0 0 0 0 0 0 0 0 0 0 0 0 0 0 0 0 0 0 0 0 0 0 0 0 0 0 0 0 0 0 0 0 0 0 0 0 0 0 0 0 0 0 0
0 0 0 0 0 0 0 0 0 0 0 0 0 0 0 0 0 -0 0 0 0 0 0 0 0 0 0 0 0 0 0 0 0 0 0 0 0 0 0 0 0 0 0 0
0 0 0 0 0 0 0 0 0 0 0 0 0 0 0 0 0 0 0 0 0 0 0 0 0 0 0 0 0 0 0 0 0 0 0 0 0 0 0 0 0 0 0 0
0 0 0 0 0 0 0 0 0 0 0 0 0 0 0 0 0 0 0 0 0 0 0 0 0 0 0 0 0 0 0 0 0 0 0 0 0 0 0 0 0 0 0 0
0 0 0 0 0 0 0 0 0 0 0 0 0 0 0 0 0 0 0 0 0 0 0 0 0 0 0 0 0 0 0 0 0 0 0 0 0 0 0 0 0 0 0 0
0 0 0 0 0 0 0 0 0 0 0 0 0 0 0 0 0 0 0 0 0 0 0 0 0 0 0 0 0 0 0 0 0 0 0 0 0 0 0 0 0 0 0 0
0 0 0 0 0 0 0 0 0 0 0 0 0 0 0 0 0 0 0 0 0 0 0 0 0 0 0 0 0 0 0 0 0 0 0 0 0 0 0 0 0 0 0 0
0 0 0 0 0 0 0 0 0 0 0 0 0 0 0 0 0 0 0 0 0 0 0 0 0 0 0 0 0 0 0 0 0 0 0 0 0 0 0 0 0 0 0 0
0 0 0 0 0 0 0 0 0 0 0 0 0 0 0 0 0 0 0 0 0 0 0 0 0 0 0 0 0 0 0 0 0 0 0 0 0 0 0 0 0 0 0 0
0 0 0 0 0 0 0 0 0 0 0 0 0 0 0 0 0 0 0 0 0 0 0 0 0 0 0 0 0 0 0 0 0 0 0 0 0 0 0 0 0 0 0 0
0 0 0 0 0 0 0 0 0 0 0 0 0 0 0 0 0 0 0 0 0 0 0 0 0 0 0 0 0 0 0 0 0 0 0 0 0 0 0 0 0 0 0 0
0 0 0 0 0 0 0 0 0 0 0 0 0 0 0 0 0 0 0 0 0 0 0 0 0 0 0 0 0 0 0 0 0 0 0 0 0 0 0 0 0 0 0 0
0 0 0 0 0 0 0 0 0 0 0 0 0 0 0 0 0 0 0 0 0 0 0 0 0 0 0 0 0 0 0 0 0 0 0 0 0 0 0 0 0 0 0 0
0 0 0 0 0 0 0 0 0 0 0 0 0 0 0 0 0 0 0 0 0 0 0 0 0 0 0 0 0 0 0 0 0 0 0 0 0 0 0 0 0 0 0 0
0 0 0 0 0 0 0 0 0 0 0 0 0 0 0 0 0 0 0 0 0 0 0 0 0 0 0 0 0 0 0 0 0 0 0 0 0 0 0 0 0 0 0 0
Wind_Speed_500mb
16 7 38 47 36 33 28 40 33 30 18 27 35 32 34 23 29 37 43 43 42 44 39 41 46 45 43 46 50 51 53 52 50 51 50 48 47 44 40 38 38 35 38 37
7 24 47 37 41 49 38 37 34 9 14 20 25 36 34 33 30 41 43 44 46 42 44 47 48 53 53 50 53 54 50 47 53 52 51 46 45 43 40 38 36 34 33 35
13 7 35 42 43 34 20 41 30 19 17 16 9 28 33 37 36 35 37 43 46 48 51 48 50 53 55 58 57 58 55 53 54 54 49 47 44 41 39 41 41 39 36 38
7 15 32 35 44 42 33 16 18 22 24 14 24 12 28 42 44 36 50 51 51 48 43 42 49 56 59 60 60 58 56 55 55 55 57 53 55 53 49 43 42 43 37 38
16 13 19 26 46 49 19 22 14 25 21 6 16 11 24 21 43 46 51 56 57 53 48 48 48 50 54 54 59 58 57 58 56 58 58 58 55 52 40 36 38 39 38 38
6 11 8 18 10 12 26 36 24 11 8 14 30 24 18 20 37 38 49 63 64 59 52 46 40 48 53 57 58 59 60 60 60 59 58 58 53 52 47 46 48 51 48 47
5 2 2 5 10 13 23 39 11 11 13 15 4 26 27 15 27 32 33 59 63 59 55 46 53 56 52 54 55 58 64 66 65 62 61 61 61 61 59 58 55 55 54 51
17 9 21 22 24 21 42 35 14 15 13 14 2 16 12 31 44 35 24 15 21 34 34 46 54 54 55 58 60 61 65 65 66 65 62 57 56 59 61 61 57 55 54 50
20 8 34 26 24 30 37 40 10 12 5 4 13 15 17 21 21 21 27 22 17 20 30 34 34 36 41 45 52 58 61 59 57 54 52 54 55 56 59 58 56 55 55 53
30 12 31 12 11 33 29 25 13 7 14 11 11 9 15 17 16 16 20 29 33 28 23 21 26 32 34 37 41 42 43 45 49 49 48 47 44 44 46 47 47 46 46 49
29 18 11 18 29 46 26 30 17 16 5 5 8 8 6 8 10 18 17 24 32 36 31 27 28 29 29 29 30 32 36 36 35 34 33 33 34 35 36 38 40 42 45 48
16 16 17 47 22 14 39 38 33 12 9 1 1 4 5 5 8 15 15 10 16 27 27 25 28 31 34 34 34 33 31 31 32 30 30 30 29 28 29 31 32 33 33 34
17 14 19 14 10 10 18 41 41 24 3 15 10 6 5 6 12 12 11 14 21 25 28 31 33 34 33 32 32 31 30 28 28 28 27 27 28 29 29 27 26 26 26 25
21 10 19 29 50 26 28 39 31 38 16 9 26 11 9 14 12 12 16 23 28 32 32 33 35 35 35 34 33 33 31 29 26 26 27 27 26 26 26 25 24 24 22 23
8 7 8 8 4 28 35 41 43 45 48 27 28 35 16 12 11 17 21 28 32 36 40 40 40 40 37 36 35 32 29 27 26 26 26 26 26 25 24 23 21 19 21 19
3 14 8 7 8 15 26 40 45 52 50 51 26 25 20 11 13 18 23 35 39 43 45 46 46 44 43 39 35 32 30 29 29 29 29 27 28 27 25 23 22 22 21 21
44 24 17 14 3 15 2 47 54 50 51 63 38 33 19 15 14 23 35 46 51 51 54 56 53 50 45 42 38 36 33 32 33 34 34 33 31 28 26 25 24 24 22 21
28 23 6 9 6 13 9 33 39 48 46 48 48 16 25 25 42 48 50 53 54 56 59 59 58 54 50 44 40 38 39 38 38 38 37 35 32 30 29 28 25 25 22 21
18 12 10 11 18 6 17 24 47 36 41 39 48 36 20 25 19 34 46 50 54 62 67 67 62 56 47 42 41 46 45 44 44 42 38 35 32 30 30 29 27 24 23 21
7 12 13 10 15 22 9 29 41 15 29 42 40 31 33 31 16 26 51 59 64 66 70 71 61 52 48 47 50 47 44 42 40 37 33 32 30 29 29 28 26 25 25 25
14 15 28 17 14 17 10 24 60 20 17 33 57 46 41 23 51 58 55 61 67 72 71 67 60 54 51 48 45 44 40 34 31 32 31 29 29 29 29 28 27 28 28 28
25 22 18 16 21 36 9 51 45 17 10 13 47 69 79 92 57 56 47 52 57 59 62 63 58 52 48 45 42 37 31 32 30 28 27 28 28 29 30 30 30 30 30 31
18 24 19 27 18 2 58 34 53 29 32 19 37 51 67 54 47 41 52 39 37 44 56 58 54 49 45 40 36 30 31 29 28 28 28 28 28 28 29 30 31 30 32 34
11 24 9 7 15 13 49 22 45 29 34 35 32 36 47 53 54 49 39 41 41 43 47 49 49 46 42 38 33 29 26 25 25 23 23 23 25 27 31 32 32 33 35 37
8 18 13 7 2 9 32 53 40 43 30 30 39 33 36 36 37 40 40 39 41 45 46 46 46 43 39 35 31 27 22 21 20 19 19 22 27 30 33 35 34 35 36 37
14 23 25 19 29 17 33 67 62 59 41 31 35 37 37 34 37 40 42 47 49 52 51 49 44 39 35 31 27 22 19 18 17 17 18 22 27 31 33 34 34 35 36 38
Wind_Direction_500mb
166 175 190 195 200 238 204 198 198 212 164 193 216 224 235 196 214 222 219 216 215 217 213 210 209 208 205 205 210 208 213 217 218 220 223 226 233 240 244 245 250 249 246 252
112 221 204 173 189 216 226 202 209 179 145 222 223 232 233 220 214 221 220 217 215 210 206 204 204 207 210 210 212 212 212 213 218 224 228 231 236 247 248 250 246 248 245 251
168 225 192 176 190 205 236 206 198 200 171 234 287 254 237 235 219 226 228 231 223 220 210 203 202 209 212 213 215 216 215 217 221 224 229 233 234 243 240 238 241 252 253 254
243 268 185 186 189 196 199 216 226 154 172 213 191 258 209 217 221 222 227 225 227 223 225 213 216 214 219 222 221 222 222 225 226 229 228 232 239 237 244 245 253 256 255 256
190 205 199 189 193 198 206 156 162 187 209 299 191 244 253 227 215 215 218 224 226 225 220 218 212 226 223 227 228 229 229 227 227 230 236 234 240 247 245 253 250 252 250 250
70 289 208 209 229 244 144 128 124 145 193 241 226 212 236 194 220 225 220 221 225 224 223 218 219 222 225 224 230 232 232 231 231 231 235 235 236 241 238 242 240 250 254 257
80 267 161 60 96 335 207 159 141 186 201 232 7 217 245 247 216 231 231 227 225 225 224 216 221 223 227 230 234 234 234 232 231 233 235 237 240 239 240 239 243 250 251 253
157 201 178 208 182 186 220 190 164 177 190 188 110 224 241 240 242 237 237 267 239 214 225 223 230 237 241 241 238 235 232 231 232 237 238 238 242 239 237 240 243 248 252 252
158 198 167 188 202 242 211 216 112 96 35 148 196 237 278 251 226 224 209 204 204 208 220 222 221 223 227 229 227 227 226 223 227 231 233 236 237 237 239 243 246 250 254 256
160 118 179 140 187 246 221 194 172 205 158 210 189 250 234 204 189 198 201 210 215 205 210 208 204 204 206 209 210 210 213 218 222 226 229 233 236 240 242 244 248 253 257 256
166 115 127 147 205 199 219 196 212 202 209 211 165 224 170 203 159 186 187 198 205 200 202 199 197 196 194 190 184 188 195 199 205 211 218 221 227 232 239 247 251 252 251 255
156 155 154 199 184 261 224 210 201 193 189 23 33 253 159 212 221 202 192 176 189 183 177 180 187 183 180 181 182 184 188 193 201 207 215 221 225 229 234 238 245 247 251 252
166 154 129 148 318 254 229 212 211 228 81 194 181 197 138 219 230 214 191 160 161 166 166 169 176 181 182 181 183 184 186 190 197 201 209 215 223 230 235 240 244 248 247 244
139 151 170 183 200 159 199 210 215 214 226 153 223 184 181 210 222 188 182 170 171 174 179 177 179 182 185 182 181 183 185 189 198 206 216 223 229 235 238 239 239 239 234 236
74 89 359 47 227 175 190 192 192 208 219 215 218 223 208 208 199 186 168 163 173 180 185 186 185 182 181 183 185 189 194 201 210 221 229 233 235 238 239 242 244 247 245 235
121 168 131 17 319 200 185 192 196 215 214 234 229 234 218 197 161 165 168 178 185 191 191 187 185 185 188 192 198 201 208 215 221 229 236 237 239 240 242 242 246 247 248 252
176 164 162 199 304 104 142 195 198 214 209 221 216 217 178 199 192 190 196 200 197 195 191 190 191 191 194 199 208 215 222 230 234 236 237 236 236 236 236 239 243 248 242 241
159 143 135 138 140 197 232 200 210 221 221 221 236 212 195 193 209 217 219 210 200 197 195 198 199 199 203 209 215 223 229 233 236 235 235 234 233 233 232 232 233 236 240 239
175 145 102 151 194 297 248 233 201 197 235 220 230 226 194 186 183 235 224 223 214 204 204 205 205 208 210 216 224 230 231 232 232 232 233 235 234 233 233 234 234 236 239 235
354 102 128 147 183 212 231 172 174 111 271 222 222 213 200 141 211 229 227 227 226 219 216 213 211 213 217 223 228 229 231 231 228 228 229 229 227 228 231 235 237 238 237 235
159 178 193 179 214 251 177 142 140 155 253 197 196 199 172 189 219 228 225 230 232 228 221 218 216 218 221 222 222 222 218 220 219 219 220 222 225 227 228 231 233 238 236 238
168 160 188 194 217 246 130 154 170 191 83 124 185 191 191 211 220 220 222 224 223 224 218 216 215 216 218 214 212 209 207 209 213 216 219 222 225 230 232 232 234 237 240 241
188 192 170 196 197 200 166 176 194 199 192 164 193 207 212 205 211 210 212 219 221 215 212 210 211 209 205 202 197 194 199 201 206 211 213 220 228 233 237 238 240 240 242 244
209 190 188 122 186 154 192 199 199 189 187 193 187 192 200 208 213 212 209 211 213 210 203 201 195 192 188 187 184 188 195 199 202 205 215 225 233 239 242 244 244 245 245 245
161 146 170 263 248 105 190 200 204 211 201 191 193 194 199 205 203 203 200 202 195 190 183 184 181 179 179 177 176 178 192 200 206 212 223 233 239 244 246 247 249 250 250 251
189 190 195 225 157 178 194 193 205 207 202 200 196 189 192 202 201 191 184 183 180 175 170 172 171 169 171 172 173 172 190 205 217 226 238 247 251 255 259 261 263 264 264 265
Wind_Speed_850mb
16 7 38 47 36 33 28 40 33 30 18 27 35 32 34 23 29 37 43 43 42 44 39 41 46 45 43 46 50 51 53 52 50 51 50 48 47 44 40 38 38 35 38 37
7 24 47 37 41 49 38 37 34 9 14 20 25 36 34 33 30 41 43 44 46 42 44 47 48 53 53 50 53 54 50 47 53 52 51 46 45 43 40 38 36 34 33 35
13 7 35 42 43 34 20 41 30 19 17 16 9 28 33 37 36 35 37 43 46 48 51 48 50 53 55 58 57 58 55 53 54 54 49 47 44 41 39 41 41 39 36 38
7 15 32 35 44 42 33 16 18 22 24 14 24 12 28 42 44 36 50 51 51 48 43 42 49 56 59 60 60 58 56 55 55 55 57 53 55 53 49 43 42 43 37 38
16 13 19 26 46 49 19 22 14 25 21 6 16 11 24 21 43 46 51 56 57 53 48 48 48 50 54 54 59 58 57 58 56 58 58 58 55 52 40 36 38 39 38 38
6 11 8 18 10 12 26 36 24 11 8 14 30 24 18 20 37 38 49 63 64 59 52 46 40 48 53 57 58 59 60 60 60 59 58 58 53 52 47 46 48 51 48 47
5 2 2 5 10 13 23 39 11 11 13 15 4 26 27 15 27 32 33 59 63 59 55 46 53 56 52 54 55 58 64 66 65 62 61 61 61 61 59 58 55 55 54 51
17 9 21 22 24 21 42 35 14 15 13 14 2 16 12 31 44 35 24 15 21 34 34 46 54 54 55 58 60 61 65 65 66 65 62 57 56 59 61 61 57 55 54 50
20 8 34 26 24 30 37 40 10 12 5 4 13 15 17 21 21 21 27 22 17 20 30 34 34 36 41 45 52 58 61 59 57 54 52 54 55 56 59 58 56 55 55 53
30 12 31 12 11 33 29 25 13 7 14 11 11 9 15 17 16 16 20 29 33 28 23 21 26 32 34 37 41 42 43 45 49 49 48 47 44 44 46 47 47 46 46 49
29 18 11 18 29 46 26 30 17 16 5 5 8 8 6 8 10 18 17 24 32 36 31 27 28 29 29 29 30 32 36 36 35 34 33 33 34 35 36 38 40 42 45 48
16 16 17 47 22 14 39 38 33 12 9 1 1 4 5 5 8 15 15 10 16 27 27 25 28 31 34 34 34 33 31 31 32 30 30 30 29 28 29 31 32 33 33 34
17 14 19 14 10 10 18 41 41 24 3 15 10 6 5 6 12 12 11 14 21 25 28 31 33 34 33 32 32 31 30 28 28 28 27 27 28 29 29 27 26 26 26 25
21 10 19 29 50 26 28 39 31 38 16 9 26 11 9 14 12 12 16 23 28 32 32 33 35 35 35 34 33 33 31 29 26 26 27 27 26 26 26 25 24 24 22 23
8 7 8 8 4 28 35 41 43 45 48 27 28 35 16 12 11 17 21 28 32 36 40 40 40 40 37 36 35 32 29 27 26 26 26 26 26 25 24 23 21 19 21 19
3 14 8 7 8 15 26 40 45 52 50 51 26 25 20 11 13 18 23 35 39 43 45 46 46 44 43 39 35 32 30 29 29 29 29 27 28 27 25 23 22 22 21 21
44 24 17 14 3 15 2 47 54 50 51 63 38 33 19 15 14 23 35 46 51 51 54 56 53 50 45 42 38 36 33 32 33 34 34 33 31 28 26 25 24 24 22 21
28 23 6 9 6 13 9 33 39 48 46 48 48 16 25 25 42 48 50 53 54 56 59 59 58 54 50 44 40 38 39 38 38 38 37 35 32 30 29 28 25 25 22 21
18 12 10 11 18 6 17 24 47 36 41 39 48 36 20 25 19 34 46 50 54 62 67 67 62 56 47 42 41 46 45 44 44 42 38 35 32 30 30 29 27 24 23 21
7 12 13 10 15 22 9 29 41 15 29 42 40 31 33 31 16 26 51 59 64 66 70 71 61 52 48 47 50 47 44 42 40 37 33 32 30 29 29 28 26 25 25 25
14 15 28 17 14 17 10 24 60 20 17 33 57 46 41 23 51 58 55 61 67 72 71 67 60 54 51 48 45 44 40 34 31 32 31 29 29 29 29 28 27 28 28 28
25 22 18 16 21 36 9 51 45 17 10 13 47 69 79 92 57 56 47 52 57 59 62 63 58 52 48 45 42 37 31 32 30 28 27 28 28 29 30 30 30 30 30 31
18 24 19 27 18 2 58 34 53 29 32 19 37 51 67 54 47 41 52 39 37 44 56 58 54 49 45 40 36 30 31 29 28 28 28 28 28 28 29 30 31 30 32 34
11 24 9 7 15 13 49 22 45 29 34 35 32 36 47 53 54 49 39 41 41 43 47 49 49 46 42 38 33 29 26 25 25 23 23 23 25 27 31 32 32 33 35 37
8 18 13 7 2 9 32 53 40 43 30 30 39 33 36 36 37 40 40 39 41 45 46 46 46 43 39 35 31 27 22 21 20 19 19 22 27 30 33 35 34 35 36 37
14 23 25 19 29 17 33 67 62 59 41 31 35 37 37 34 37 40 42 47 49 52 51 49 44 39 35 31 27 22 19 18 17 17 18 22 27 31 33 34 34 35 36 38
Wind_Direction_850mb
166 175 190 195 200 238 204 198 198 212 164 193 216 224 235 196 214 222 219 216 215 217 213 210 209 208 205 205 210 208 213 217 218 220 223 226 233 240 244 245 250 249 246 252
112 221 204 173 189 216 226 202 209 179 145 222 223 232 233 220 214 221 220 217 215 210 206 204 204 207 210 210 212 212 212 213 218 224 228 231 236 247 248 250 246 248 245 251
168 225 192 176 190 205 236 206 198 200 171 234 287 254 237 235 219 226 228 231 223 220 210 203 202 209 212 213 215 216 215 217 221 224 229 233 234 243 240 238 241 252 253 254
243 268 185 186 189 196 199 216 226 154 172 213 191 258 209 217 221 222 227 225 227 223 225 213 216 214 219 222 221 222 222 225 226 229 228 232 239 237 244 245 253 256 255 256
190 205 199 189 193 198 206 156 162 187 209 299 191 244 253 227 215 215 218 224 226 225 220 218 212 226 223 227 228 229 229 227 227 230 236 234 240 247 245 253 250 252 250 250
70 289 208 209 229 244 144 128 124 145 193 241 226 212 236 194 220 225 220 221 225 224 223 218 219 222 225 224 230 232 232 231 231 231 235 235 236 241 238 242 240 250 254 257
80 267 161 60 96 335 207 159 141 186 201 232 7 217 245 247 216 231 231 227 225 225 224 216 221 223 227 230 234 234 234 232 231 233 235 237 240 239 240 239 243 250 251 253
157 201 178 208 182 186 220 190 164 177 190 188 110 224 241 240 242 237 237 267 239 214 225 223 230 237 241 241 238 235 232 231 232 237 238 238 242 239 237 240 243 248 252 252
158 198 167 188 202 242 211 216 112 96 35 148 196 237 278 251 226 224 209 204 204 208 220 222 221 223 227 229 227 227 226 223 227 231 233 236 237 237 239 243 246 250 254 256
160 118 179 140 187 246 221 194 172 205 158 210 189 250 234 204 189 198 201 210 215 205 210 208 204 204 206 209 210 210 213 218 222 226 229 233 236 240 242 244 248 253 257 256
166 115 127 147 205 199 219 196 212 202 209 211 165 224 170 203 159 186 187 198 205 200 202 199 197 196 194 190 184 188 195 199 205 211 218 221 227 232 239 247 251 252 251 255
156 155 154 199 184 261 224 210 201 193 189 23 33 253 159 212 221 202 192 176 189 183 177 180 187 183 180 181 182 184 188 193 201 207 215 221 225 229 234 238 245 247 251 252
166 154 129 148 318 254 229 212 211 228 81 194 181 197 138 219 230 214 191 160 161 166 166 169 176 181 182 181 183 184 186 190 197 201 209 215 223 230 235 240 244 248 247 244
139 151 170 183 200 159 199 210 215 214 226 153 223 184 181 210 222 188 182 170 171 174 179 177 179 182 185 182 181 183 185 189 198 206 216 223 229 235 238 239 239 239 234 236
74 89 359 47 227 175 190 192 192 208 219 215 218 223 208 208 199 186 168 163 173 180 185 186 185 182 181 183 185 189 194 201 210 221 229 233 235 238 239 242 244 247 245 235
121 168 131 17 319 200 185 192 196 215 214 234 229 234 218 197 161 165 168 178 185 191 191 187 185 185 188 192 198 201 208 215 221 229 236 237 239 240 242 242 246 247 248 252
176 164 162 199 304 104 142 195 198 214 209 221 216 217 178 199 192 190 196 200 197 195 191 190 191 191 194 199 208 215 222 230 234 236 237 236 236 236 236 239 243 248 242 241
159 143 135 138 140 197 232 200 210 221 221 221 236 212 195 193 209 217 219 210 200 197 195 198 199 199 203 209 215 223 229 233 236 235 235 234 233 233 232 232 233 236 240 239
175 145 102 151 194 297 248 233 201 197 235 220 230 226 194 186 183 235 224 223 214 204 204 205 205 208 210 216 224 230 231 232 232 232 233 235 234 233 233 234 234 236 239 235
354 102 128 147 183 212 231 172 174 111 271 222 222 213 200 141 211 229 227 227 226 219 216 213 211 213 217 223 228 229 231 231 228 228 229 229 227 228 231 235 237 238 237 235
159 178 193 179 214 251 177 142 140 155 253 197 196 199 172 189 219 228 225 230 232 228 221 218 216 218 221 222 222 222 218 220 219 219 220 222 225 227 228 231 233 238 236 238
168 160 188 194 217 246 130 154 170 191 83 124 185 191 191 211 220 220 222 224 223 224 218 216 215 216 218 214 212 209 207 209 213 216 219 222 225 230 232 232 234 237 240 241
188 192 170 196 197 200 166 176 194 199 192 164 193 207 212 205 211 210 212 219 221 215 212 210 211 209 205 202 197 194 199 201 206 211 213 220 228 233 237 238 240 240 242 244
209 190 188 122 186 154 192 199 199 189 187 193 187 192 200 208 213 212 209 211 213 210 203 201 195 192 188 187 184 188 195 199 202 205 215 225 233 239 242 244 244 245 245 245
161 146 170 263 248 105 190 200 204 211 201 191 193 194 199 205 203 203 200 202 195 190 183 184 181 179 179 177 176 178 192 200 206 212 223 233 239 244 246 247 249 250 250 251
189 190 195 225 157 178 194 193 205 207 202 200 196 189 192 202 201 191 184 183 180 175 170 172 171 169 171 172 173 172 190 205 217 226 238 247 251 255 259 261 263 264 264 265